AirNav   Air Wisconsin pilot careers
 
 1045 users online  

39P Strom Field Airport
Morton, Washington, USA

GOING TO MORTON?


FAA INFORMATION EFFECTIVE 16 AUGUST 2018

Location

FAA Identifier: 39P
Lat/Long: 46-33-01.2990N / 122-15-59.8530W
46-33.021650N / 122-15.997550W
46.5503608 / -122.2666258
(estimated)
Elevation: 941 ft. / 287 m (estimated)
Variation: 20E (1985)
Time zone: UTC -7 (UTC -8 during Standard Time)
Zip code: 98356

Airport Operations

Airport use: Open to the public
Activation date: 08/1964
Control tower: no
ARTCC: SEATTLE CENTER
FSS: SEATTLE FLIGHT SERVICE STATION
NOTAMs facility: SEA (NOTAM-D service available)
Attendance: UNATNDD
Wind indicator: lighted
Segmented circle: no
Lights: ACTVT MIRL RY 07/25 - CTAF.
Beacon: white-green (lighted land airport)
ACTVT ROTG BCN - CTAF.

Airport Communications

CTAF: 122.9

Nearby radio navigation aids

VOR radial/distance  VOR name  Freq  Var
OLMr115/36.3OLYMPIA VORTAC113.4019E
TCMr152/36.8MCCHORD VORTAC109.6015E

 
NDB name  Hdg/Dist  Freq  Var  ID
LACOMAS141/29.932816ELAC .-.. .- -.-.
KELSO031/35.725617ELSO .-.. ... ---
GRAYE143/38.621616EGRF --. .-. ..-.

Airport Services

Parking: tiedowns
Airframe service: NONE
Powerplant service: NONE

Runway Information

Runway 7/25

Dimensions: 1810 x 40 ft. / 552 x 12 m
Surface: asphalt, in fair condition
Runway edge lights: medium intensity
RUNWAY 7  RUNWAY 25
Latitude: 46-33.022283N46-33.021000N
Longitude: 122-16.213367W122-15.781733W
Traffic pattern: leftleft
Runway heading: 070 magnetic, 090 true250 magnetic, 270 true
Displaced threshold: 200 ft.no
Markings: basic, in fair conditionbasic, in fair condition
Obstructions: 65 ft. trees, 285 ft. from runway, 3 ft. right of centerline, 1:1 slope to clear
+3 FT ROAD AT 15 FT FM THLD.
41 ft. trees, 1318 ft. from runway, 40 ft. both sides of centerline, 27:1 slope to clear
RWY 25 +2 FT ROAD AT 15 FT FM THLD.

Airport Ownership and Management from official FAA records

Ownership: Publicly-owned
Owner: CITY OF MORTON
PO BOX 1089
MORTON, WA 98356
Phone 360-496-6881
Manager: KIETH COUNYER
PO BOX 1089, PO BOX 1089
MORTON, WA 98356
Phone (360) 496-5210
PUB. WKS. SUP.

Airport Operational Statistics

Aircraft based on the field: 6
Single engine airplanes: 4
Ultralights: 2
    
Aircraft operations: avg 22/day *
82% transient general aviation
18% local general aviation
<1% military
* for 12-month period ending 31 July 2015

Additional Remarks

TREES NEAR RWY.
TREES AND BRUSH IN PRIM SFC.
DEER AND ELK ON & INVOF RWY.

Instrument Procedures

There are no published instrument procedures at 39P.

Some nearby airports with instrument procedures:

KTDO - Ed Carlson Memorial Field - South Lewis Co Airport (23 nm W)
KCLS - Chehalis-Centralia Airport (30 nm W)
KPLU - Pierce County Airport - Thun Field (33 nm N)
KGRF - Gray Army Airfield (Joint Base Lewis-McChord) (34 nm N)
KOLM - Olympia Regional Airport (36 nm NW)
 
Loc | Ops | Rwys | IFR | FBO | Links
Com | Nav | Svcs | Stats | Notes


 
Area around 39P (Strom Field Airport)
 
Road maps at: MapQuest Bing Google
 
Aerial photo
WARNING: Photo may not be current or correct
Aerial photo of 39P (Strom Field Airport)
Photo taken 01-Sep-2012
looking west.

Do you have a better or more recent aerial photo of Strom Field Airport that you would like to share? If so, please send us your photo.

 
Sectional chart

 
Airport distance calculator
Flying to Strom Field Airport? Find the distance to fly.

From to 39P

Sunrise and sunset
Times for 16-Aug-2018
 Local
(UTC-7)
 Zulu
(UTC)
Morning civil twilight05:3712:37
Sunrise06:1013:10
Sunset20:1703:17
Evening civil twilight20:5003:50

Current date and time
Zulu (UTC)  17-Aug-2018 00:28:49
Local (UTC-7)  16-Aug-2018 17:28:49
 
METAR
KCLS 
30nm W 
170015Z AUTO 34008KT 10SM CLR 26/12 A3007 RMK AO2
KPLU 
33nm N 
170015Z AUTO 00000KT 10SM CLR 26/09 A3007 RMK AO2
KGRF 
33nm N 
162358Z AUTO 26008KT 10SM CLR 25/14 A3005 RMK AO2 SLP179 T02530138 10253 20162 58009 $
KTCM 
35nm N 
162358Z AUTO 28003KT 10SM CLR 25/13 A3006 RMK AO2 SLP182 T02490134 10250 20164 57008 $
KOLM 
36nm NW 
162354Z 22009KT 10SM FU CLR 26/09 A3005 RMK AO2 SLP174 T02560089 10267 20167 58009
KKLS 
37nm SW 
162356Z AUTO 30008KT 270V330 10SM CLR 24/13 A3006 RMK AO2 SLP184 T02390133 10250 20167 57006
TAF
KGRF 
33nm N 
162101Z 1621/1803 22009KT 9999 FEW030 QNH3007INS BECMG 1707/1708 23006KT 8000 FU BKN010 QNH3016INS TEMPO 1709/1715 4800 BR FU BECMG 1718/1719 29006KT 9999 NSW FEW030 QNH3023INS TX24/1700Z TN13/1711Z
KTCM 
35nm N 
162102Z 1621/1803 22009KT 9999 FEW030 QNH3007INS BECMG 1707/1708 23006KT 8000 FU BKN010 QNH3016INS TEMPO 1709/1715 4800 BR FU BECMG 1718/1719 29006KT 9999 NSW FEW030 QNH3023INS TX24/1700Z TN13/1711Z
KOLM 
36nm NW 
161724Z 1618/1718 22005KT P6SM OVC015 FM161900 25006KT P6SM SKC FM170000 35005KT P6SM SKC FM170600 20005KT P6SM SKC FM171000 19004KT P6SM BKN010 FM171200 21003KT P6SM OVC008
NOTAMs
Click for the latest NOTAMs
NOTAMs are issued by the DoD/FAA and will open in a separate window not controlled by AirNav.

 

 
 

Would you like to see your business listed on this page?

 If your business provides an interesting product or service to pilots, flight crews, aircraft, or users of the Strom Field Airport, you should consider listing it here.  To start the listing process, click on the button below
 
Add a business
 

Other Pages about Strom Field Airport

Update a link
 
Copyright © AirNav, LLC. All rights reserved. Privacy Policy  Contact